MOLNIYA 3-51

Last updated on Thu Jan 05 2017 00:17:03 GMT+0000 (Greenwich Mean Time)

1 26867U 01030A 16354.23731075 .99999999 85310-5 12273-2 0 9991 2 26867 62.3878 71.4818 0412890 275.7728 183.9149 15.70963793119732

Satellite not in orbit